Regional Weather Roundup
Issued by NWS

Home | Current Version | Previous Version | Graphics & Text | Print | Product List | Glossary On
Versions: 1 2 3 4 5 6 7 8 9 10 11 12 13 14 15 16 17 18 19 20 21 22 23 24 25 26 27 28 29 30 31 32 33 34 35 36 37 38 39 40 41 42 43 44 45 46 47 48 49 50
000
ASUS45 KSLC 201010
RWRUT

UTAH REGIONAL WEATHER ROUNDUP
NATIONAL WEATHER SERVICE SALT LAKE CITY UT
400 AM MDT MON APR 20 2015

UTZ001>011-023>025-201100-

NORTHERN UTAH

CITY           SKY/WX    TMP DP  RH WIND       PRES   REMARKS
BRIGHAM CITY     N/A     40  29  63 NW5       29.95S
HILL AFB         N/A     46  28  49 SE14      29.94S
LOGAN          CLEAR     34  28  79 CALM      29.97S
OGDEN            N/A     45  30  55 S6        29.93S
PROVO AIRPORT    N/A     45  30  57 CALM      29.95S
SALT LAKE CITY   N/A     47  34  60 SW5       29.93S
VERNAL         CLEAR     38  32  79 NW3       29.99R
WENDOVER         N/A     48  18  29 S6        29.96S
HEBER CITY       N/A     34  23  64 SE3       29.99S
WEST JORDAN    CLEAR     45  32  61 W6        29.95S

$$

UTZ012>022-026-027-201100-

SOUTHERN/CENTRAL UTAH

CITY           SKY/WX    TMP DP  RH WIND       PRES   REMARKS
BLANDING         N/A     40  31  71 N8        30.04S WCI  34
BRYCE CANYON     N/A     29  16  58 W5        30.05S WCI  24
CEDAR CITY       N/A     39  20  46 CALM      29.94F
DELTA            N/A     41  22  47 NW5       29.94S
HANKSVILLE       N/A     46  37  71 CALM      29.97R
MILFORD          N/A     39  20  46 S5        29.94S
MOAB/CYNLANDS  CLEAR     46  39  76 SE7       29.94S
PRICE            N/A     40  30  67 NE7       29.98S
ST GEORGE        N/A     57  18  21 CALM      29.86R
KANAB            N/A     39  25  56 NE3       29.99R

$$

REGIONAL REPORTS     COLORADO/ARIZONA

CITY           SKY/WX    TMP DP  RH WIND       PRES   REMARKS
CRAIG, CO      CLOUDY    35  33  92 CALM      30.03R
GRAND JUNCTION MOCLDY    43  41  93 E12       29.98S
RIFLE          PTCLDY    41  37  86 SW3       30.01R
MONTROSE       MOCLDY    42  39  89 SE8       30.03F
CORTEZ         PTCLDY    34  28  79 E6        30.00S WCI  29
PAGE, AZ         N/A     54  28  36 CALM      29.91S
GRAND CANYON     N/A     26  15  63 CALM      30.04F
KINGMAN          N/A     56  16  20 SE8       29.89S
FLAGSTAFF        N/A     28  23  81 CALM      30.06S

$$

REGIONAL REPORTS    NEVADA/IDAHO/WYOMING

CITY           SKY/WX    TMP DP  RH WIND       PRES   REMARKS
LAS VEGAS, NV    N/A     71  14  11 S10       29.74S
ELY              N/A     31   7  36 S12       30.03S WCI  22
ELKO             N/A     33  19  56 CALM      30.00S
POCATELLO, ID  CLEAR     46  25  43 SW12      29.98S
BURLEY           N/A     39  25  57 W3        29.95S
EVANSTON, WY   PTCLDY    36  21  54 SE6       30.02S WCI  31
ROCK SPRINGS   CLEAR     30  28  92 CALM      30.03S

$$


USA.gov is the U.S. government's official web portal to all federal, state and local government web resources and services.